Starlink 5167

operational
NORAD ID: 54058 Int'l Des: 2022-136 Owner: SPXS Country: US Constellation: starlink
LEOCIRCULAR

Über Starlink 5167

Beschreibung wird geladen...

Live-Position

3D-Globus wird geladen...

Nächste Überflüge

Höhenverlauf

Altitude vs Time

uPlot chart will show altitude changes over time

Zweizeiliger Elementsatz

1 54058U 22136H 25350.29222317 -.00000393 00000-0 -66201-5 0 9996
2 54058 53.2184 358.5158 0001188 85.9196 274.1932 15.08831766174250
Epoch: 16. Dez. 2025 • Age: 15 hours

Aktueller Status

Höhe 541.2 km
Geschwindigkeit 7.59 km/s
Subsatellitenpunkt -3.26°S, 120.32°E
Startdatum 20. Okt. 2022
Alter 3.1 years
Typ internet

Technische Details

Klassifizierung Payload
Masse 305.00 kg
Trockenmasse 290.00 kg
Gesamtmasse 305.00 kg
Länge 0.20 m
Durchmesser 2.80 m
Spannweite 9.00 m
Form Box + pan
Hersteller SPXS
Bus-Typ Starlink
Phasenstatus In Orbit
Besitzer/Staat SPXS/US

Große Konstellationen

Loading constellations...